sat.trackr.live / text

‹ back to catalog

STARLINK-36476

NORAD 67314 · 2026-002K

PAYLOAD ACTIVE UNKNOWN

§ Identity

Operator
Country
US
Launch date
2026-01-04
Launch site
AFETR
Launch vehicle
Mass (kg)
RCS (m²)

Purposes: comms

External: N2YO · Heavens-Above · Gunter

§ Orbital elements

Epoch: 2026-05-25T00:43:25.118112Z

Period
94.27 min
Inclination
43.0020°
Eccentricity
0.0003931
Mean motion
15.27598606 rev/d
Perigee alt
480.3 km
Apogee alt
485.7 km
Semi-major
6,861.1 km
B*
4.8450e-4
RAAN
254.1801°
Arg perigee
265.2226°
Mean anomaly
94.8177°
Rev number
2,274

§ Raw data

STARLINK-364761 67314U 26002K   26145.03015183  .00013103  00000+0  48450-3 0  99912 67314  43.0020 254.1801 0003931 265.2226  94.8177 15.27598606 22744

JSON: /api/v1/satellites/67314 · /tle

For live sub-satellite position, see the globe view (requires WebGL).

§ Visibility from observer

Set your observer location to see the next 7 days of passes ≥ 10°. The values pass through the URL so the page stays shareable.

No JS? Fill the form by hand. The geolocation button needs JavaScript.